Latest Weather Observations for McArthur River Mine

IDD60801

Issued at 11:05 pm CST Monday 1 September 2014 (issued every 30 minutes, with the page automatically refreshed every 10 minutes)

About weather observations | Map of weather stations | Latest weather observations for NT | Other Formats
Station Details ID: 014704 Name: MCARTHUR RIVER MINE AIRPORT Lat: -16.44 Lon: 136.08 Height: 40.0 m
Data from the previous 72 hours. | See also: Recent months at McArthur River Mine
Date/Time
CST
Temp
°C
App
Temp
°C
Dew
Point
Rel
Hum
%
Delta-T
°C
Wind Press
QNH
hPa
Press
MSL
hPa
Rain
since 9 am
mm
Dir
 
Spd
km/h
Gust
km/h
Spd
kts
Gust
kts
01/11:00pm 21.5 21.7 12.9 58 4.9 NE 4 9 2 5 1015.6 - 0.0
01/10:30pm 22.4 21.3 12.1 52 5.8 N 9 11 5 6 1015.5 - 0.0
01/10:00pm 22.3 20.9 9.5 44 6.9 N 7 9 4 5 1015.3 - 0.0
01/09:30pm 23.8 22.5 9.8 41 7.7 NNE 7 11 4 6 1015.0 - 0.0
01/09:00pm 24.6 23.0 10.1 40 8.0 NNE 9 13 5 7 1014.5 1014.3 0.0
01/08:30pm 25.5 23.9 10.1 38 8.5 NNE 9 15 5 8 1014.3 - 0.0
01/08:00pm 26.6 24.3 10.3 36 9.1 NNE 13 19 7 10 1013.9 - 0.0
01/07:30pm 27.6 24.1 10.3 34 9.7 NNE 19 30 10 16 1013.5 - 0.0
01/07:00pm 27.6 25.3 7.5 28 10.8 NE 9 17 5 9 1012.9 - 0.0
01/06:30pm 29.8 27.5 0.4 15 14.1 S 2 6 1 3 1012.6 - 0.0
01/06:00pm 32.1 28.7 -0.9 12 15.8 SSE 7 11 4 6 1012.4 1012.2 0.0
01/05:30pm 33.2 29.7 -1.2 11 16.5 SSE 7 13 4 7 1012.1 - 0.0
01/05:00pm 33.6 29.8 -0.9 11 16.7 SE 9 17 5 9 1011.9 - 0.0
01/04:30pm 33.8 29.8 -2.0 10 17.0 E 9 15 5 8 1011.8 - 0.0
01/04:00pm 34.0 30.6 -0.6 11 16.8 E 7 17 4 9 1011.9 - 0.0
01/03:30pm 33.9 30.5 -0.7 11 16.8 SSE 7 20 4 11 1012.1 - 0.0
01/03:00pm 33.7 29.1 -0.8 11 16.7 SE 13 20 7 11 1012.2 1012.0 0.0
01/02:30pm 33.0 28.7 -1.4 11 16.4 S 11 22 6 12 1012.6 - 0.0
01/02:00pm 34.2 28.9 -0.4 11 16.9 ENE 17 26 9 14 1013.0 - 0.0
01/01:30pm 33.0 28.5 -0.2 12 16.1 SE 13 20 7 11 1013.4 - 0.0
01/01:00pm 32.7 28.2 -0.4 12 16.0 E 13 24 7 13 1013.9 - 0.0
01/12:30pm 32.0 27.6 -2.1 11 16.0 E 11 30 6 16 1014.5 - 0.0
01/12:00pm 32.3 26.7 -3.2 10 16.3 E 17 30 9 16 1015.2 1015.0 0.0
01/11:30am 31.6 26.6 -1.2 12 15.5 ESE 15 28 8 15 1015.7 - 0.0
01/11:00am 31.2 27.6 4.9 19 13.8 E 13 20 7 11 1016.3 - 0.0
01/10:30am 29.6 27.6 8.6 27 11.6 SSE 9 22 5 12 1016.9 - 0.0
01/10:00am 27.1 26.5 11.6 38 8.9 SW 6 11 3 6 1017.3 - 0.0
01/09:30am 24.9 24.2 13.1 48 6.9 SSW 9 13 5 7 1017.5 - 0.0
01/09:00am 22.7 22.4 14.5 60 4.8 SSW 9 15 5 8 1017.3 1017.2 0.0
01/08:30am 20.1 20.1 13.6 66 3.7 WSW 6 7 3 4 1017.2 - 0.0
01/08:08am 18.1 18.0 13.4 74 2.7 SW 6 7 3 4 1017.0 - 0.0
01/08:00am 17.6 17.5 13.3 76 2.4 WSW 6 7 3 4 1017.0 - 0.0
01/07:54am 17.0 16.6 13.1 78 2.2 WSW 7 9 4 5 1016.9 - 0.0
01/07:30am 14.7 14.8 12.7 88 1.1 W 4 7 2 4 1016.8 - 0.0
01/07:20am 14.1 14.9 12.7 91 0.8 CALM 0 0 0 0 1016.7 - 0.0
01/07:08am 13.6 14.5 13.0 96 0.3 CALM 0 0 0 0 1016.6 - 0.0
01/07:00am 13.3 14.1 12.5 95 0.4 CALM 0 0 0 0 1016.5 - 0.0
01/06:30am 12.7 13.2 11.6 93 0.6 CALM 0 0 0 0 1016.0 - 0.0
01/06:00am 13.5 14.2 12.1 91 0.8 SSW 0 0 0 0 1015.5 1015.3 0.0
01/05:30am 13.8 14.3 11.7 87 1.1 CALM 0 0 0 0 1015.2 - 0.0
01/05:00am 14.4 15.1 12.3 87 1.1 CALM 0 0 0 0 1014.9 - 0.0
01/04:57am 14.5 15.5 13.2 92 0.7 CALM 0 0 0 0 1014.9 - 0.0
01/04:33am 14.4 15.3 13.0 91 0.8 CALM 0 0 0 0 1014.7 - 0.0
01/04:30am 14.4 15.3 13.0 91 0.8 CALM 0 0 0 0 1014.7 - 0.0
01/04:00am 15.2 14.8 13.1 87 1.2 NNW 7 9 4 5 1014.6 - 0.0
01/03:30am 15.7 15.4 13.4 86 1.3 W 7 9 4 5 1014.6 - 0.0
01/03:00am 16.1 14.9 13.9 87 1.2 S 13 19 7 10 1014.5 1014.3 0.0
01/02:30am 15.3 15.7 11.1 76 2.2 CALM 0 0 0 0 1014.1 - 0.0
01/02:00am 16.0 16.4 11.2 73 2.6 CALM 0 0 0 0 1014.1 - 0.0
01/01:30am 16.7 17.6 12.8 78 2.2 CALM 0 0 0 0 1014.2 - 0.0
01/01:22am 16.9 17.9 13.2 79 2.1 CALM 0 0 0 0 1014.2 - 0.0
01/01:12am 17.1 18.1 13.2 78 2.2 CALM 0 0 0 0 1014.3 - 0.0
01/01:00am 17.1 18.0 13.0 77 2.3 CALM 0 0 0 0 1014.3 - 0.0
01/12:30am 18.2 18.8 12.0 67 3.4 CALM 0 0 0 0 1014.3 - 0.0
01/12:00am 20.7 21.1 15.3 71 3.2 NE 7 11 4 6 1014.3 1014.1 0.0
 
Date/Time
CST
Temp
°C
App
Temp
°C
Dew
Point
Rel
Hum
%
Delta-T
°C
Wind Press
QNH
hPa
Press
MSL
hPa
Rain
since 9 am
mm
Dir
 
Spd
km/h
Gust
km/h
Spd
kts
Gust
kts
31/11:30pm 21.1 21.4 15.0 68 3.6 NE 7 11 4 6 1014.4 - 0.0
31/11:00pm 21.4 21.0 14.1 63 4.3 ENE 9 11 5 6 1014.4 - 0.0
31/10:30pm 21.4 21.1 12.8 58 4.9 ENE 6 7 3 4 1014.3 - 0.0
31/10:00pm 22.7 21.7 12.3 52 5.9 NE 9 13 5 7 1014.2 - 0.0
31/09:30pm 22.9 22.3 12.2 51 6.1 NNE 7 11 4 6 1014.2 - 0.0
31/09:00pm 24.0 22.7 11.3 45 7.1 N 9 13 5 7 1014.2 1014.0 0.0
31/08:30pm 25.0 22.7 10.5 40 8.1 NNE 13 20 7 11 1013.8 - 0.0
31/08:00pm 25.7 22.5 9.9 37 8.7 NE 17 24 9 13 1013.5 - 0.0
31/07:30pm 26.4 23.3 8.8 33 9.6 NE 15 20 8 11 1013.0 - 0.0
31/07:00pm 27.1 23.5 8.5 31 10.1 NE 17 24 9 13 1012.5 - 0.0
31/06:30pm 28.5 25.4 7.1 26 11.5 NE 13 20 7 11 1011.8 - 0.0
31/06:00pm 31.4 27.5 -1.4 12 15.5 SSE 9 13 5 7 1011.5 1011.3 0.0
31/05:30pm 32.4 28.3 -3.1 10 16.4 SSE 9 15 5 8 1011.3 - 0.0
31/05:00pm 32.6 29.1 -1.7 11 16.2 S 7 13 4 7 1011.3 - 0.0
31/04:30pm 32.7 28.4 -1.6 11 16.3 S 11 20 6 11 1011.3 - 0.0
31/04:00pm 33.2 30.5 -2.5 10 16.7 SSE 2 7 1 4 1011.1 - 0.0
31/03:30pm 33.1 28.7 -2.6 10 16.7 ESE 11 19 6 10 1011.2 - 0.0
31/03:00pm 33.0 29.1 -1.4 11 16.4 E 9 19 5 10 1011.4 1011.2 0.0
31/02:30pm 32.7 28.9 -0.4 12 16.0 E 9 17 5 9 1011.9 - 0.0
31/02:00pm 32.0 28.3 0.2 13 15.5 E 9 17 5 9 1012.2 - 0.0
31/01:30pm 32.6 28.2 0.6 13 15.7 E 13 22 7 12 1012.9 - 0.0
31/01:00pm 31.1 28.1 0.5 14 14.9 NE 6 13 3 7 1013.4 - 0.0
31/12:30pm 32.0 26.6 1.2 14 15.2 E 19 28 10 15 1014.0 - 0.0
31/12:00pm 30.6 26.4 1.9 16 14.2 SSE 13 22 7 12 1014.4 1014.2 0.0
31/11:30am 30.3 25.5 2.5 17 13.9 E 17 28 9 15 1015.0 - 0.0
31/11:00am 29.6 26.9 5.6 22 12.6 ESE 9 13 5 7 1015.6 - 0.0
31/10:30am 27.7 25.6 6.5 26 11.2 ESE 7 13 4 7 1016.0 - 0.0
31/10:00am 26.1 24.5 8.1 32 9.7 WSW 6 11 3 6 1016.4 - 0.0
31/09:30am 23.6 22.1 8.5 38 8.1 SSW 6 9 3 5 1016.7 - 0.0
31/09:00am 21.8 20.0 8.0 41 7.2 SSW 7 11 4 6 1016.7 1016.6 0.0
31/08:30am 19.0 17.5 8.4 50 5.5 WSW 6 7 3 4 1016.6 - 0.0
31/08:00am 16.5 14.8 8.5 59 4.1 WSW 7 9 4 5 1016.4 - 0.0
31/07:30am 13.3 12.2 6.9 65 3.1 SW 2 6 1 3 1016.2 - 0.0
31/07:00am 11.8 10.5 6.1 68 2.7 SW 2 7 1 4 1015.8 - 0.0
31/06:30am 11.3 10.0 6.2 71 2.4 WSW 2 6 1 3 1015.4 - 0.0
31/06:20am 11.3 9.6 6.0 70 2.5 WSW 4 6 2 3 1015.4 - 0.0
31/06:04am 11.5 9.5 6.2 70 2.5 WSW 6 7 3 4 1015.2 - 0.0
31/06:00am 11.6 9.6 6.3 70 2.5 WSW 6 7 3 4 1015.2 1015.0 0.0
31/05:30am 11.8 9.7 5.9 67 2.8 WSW 6 7 3 4 1015.3 - 0.0
31/05:00am 11.8 9.6 5.4 65 3.0 SW 6 7 3 4 1015.3 - 0.0
31/04:30am 12.1 11.0 5.3 63 3.1 CALM 0 0 0 0 1015.0 - 0.0
31/04:00am 12.8 11.5 6.2 64 3.1 WSW 2 6 1 3 1014.9 - 0.0
31/03:30am 13.2 11.2 6.1 62 3.4 WSW 6 6 3 3 1014.9 - 0.0
31/03:00am 13.2 11.1 5.9 61 3.5 WSW 6 7 3 4 1015.0 1014.8 0.0
31/02:30am 13.8 12.1 5.7 58 3.8 W 4 6 2 3 1015.1 - 0.0
31/02:00am 14.5 12.5 6.1 57 4.0 WSW 6 9 3 5 1015.2 - 0.0
31/01:30am 14.3 13.2 4.9 53 4.4 CALM 0 0 0 0 1015.1 - 0.0
31/01:03am 14.9 13.6 4.0 48 5.0 CALM 0 0 0 0 1015.2 - 0.0
31/01:00am 15.2 13.8 3.7 46 5.3 CALM 0 0 0 0 1015.2 - 0.0
31/12:48am 16.5 15.3 4.5 45 5.7 CALM 0 6 0 3 1015.3 - 0.0
31/12:42am 17.0 15.1 5.0 45 5.7 ENE 4 6 2 3 1015.3 - 0.0
31/12:30am 17.7 15.6 5.9 46 5.8 E 6 7 3 4 1015.4 - 0.0
31/12:21am 17.7 16.5 6.6 48 5.5 E 2 6 1 3 1015.5 - 0.0
31/12:01am 17.8 16.4 5.4 44 6.0 ESE 2 7 1 4 1015.5 - 0.0
31/12:00am 17.8 16.4 5.7 45 5.9 ESE 2 7 1 4 1015.5 1015.3 0.0
 
Date/Time
CST
Temp
°C
App
Temp
°C
Dew
Point
Rel
Hum
%
Delta-T
°C
Wind Press
QNH
hPa
Press
MSL
hPa
Rain
since 9 am
mm
Dir
 
Spd
km/h
Gust
km/h
Spd
kts
Gust
kts
30/11:38pm 19.0 17.9 5.1 40 6.8 CALM 0 0 0 0 1015.5 - 0.0
30/11:30pm 17.8 16.6 4.4 41 6.4 CALM 0 0 0 0 1015.5 - 0.0
30/11:28pm 17.7 16.4 4.3 41 6.3 CALM 0 0 0 0 1015.5 - 0.0
30/11:19pm 18.0 16.0 4.6 41 6.4 ESE 4 6 2 3 1015.5 - 0.0
30/11:01pm 18.6 16.3 4.8 40 6.6 E 6 7 3 4 1015.5 - 0.0
30/11:00pm 18.8 16.5 4.9 40 6.7 E 6 7 3 4 1015.5 - 0.0
30/10:58pm 18.8 16.5 4.6 39 6.8 E 6 7 3 4 1015.5 - 0.0
30/10:44pm 19.7 16.5 5.0 38 7.2 SSW 11 13 6 7 1015.6 - 0.0
30/10:30pm 19.4 17.8 4.3 37 7.2 ESE 2 6 1 3 1015.3 - 0.0
30/10:21pm 19.9 17.7 5.2 38 7.2 N 6 6 3 3 1015.1 - 0.0
30/10:00pm 19.4 16.7 3.6 35 7.5 NNW 7 7 4 4 1014.9 - 0.0
30/09:30pm 21.4 18.3 3.6 31 8.5 NE 9 11 5 6 1014.9 - 0.0
30/09:27pm 21.6 19.0 4.2 32 8.5 NE 7 9 4 5 1014.9 - 0.0
30/09:00pm 23.1 20.4 3.6 28 9.5 NE 7 11 4 6 1014.7 1014.5 0.0
30/08:41pm 23.7 20.6 3.6 27 9.8 NNE 9 13 5 7 1014.6 - 0.0
30/08:30pm 24.0 21.0 3.9 27 9.9 NNE 9 13 5 7 1014.5 - 0.0
30/08:24pm 23.9 21.2 3.8 27 9.9 NNE 7 13 4 7 1014.4 - 0.0
30/08:06pm 24.4 21.6 3.1 25 10.4 NNE 7 11 4 6 1014.3 - 0.0
30/08:04pm 24.5 21.7 3.2 25 10.4 NNE 7 11 4 6 1014.2 - 0.0
30/08:00pm 24.7 21.5 2.8 24 10.6 NNE 9 11 5 6 1014.1 - 0.0
30/07:54pm 25.1 21.5 3.1 24 10.7 NNE 11 13 6 7 1014.0 - 0.0
30/07:30pm 25.5 21.7 1.6 21 11.4 NNE 11 17 6 9 1013.7 - 0.0
30/07:00pm 25.3 22.0 -4.1 14 12.6 S 4 7 2 4 1013.1 - 0.0
30/06:30pm 27.8 23.9 -6.6 10 14.4 SSW 6 7 3 4 1012.8 - 0.0
30/06:00pm 30.9 25.8 -8.9 7 16.4 S 11 15 6 8 1012.5 1012.3 0.0
30/05:30pm 31.7 27.5 -8.3 7 16.8 SE 7 11 4 6 1012.2 - 0.0
30/05:00pm 32.0 26.9 -10.0 6 17.2 SSE 11 17 6 9 1012.1 - 0.0
30/04:30pm 32.5 28.1 -9.7 6 17.4 SW 7 11 4 6 1012.1 - 0.0
30/04:00pm 32.2 27.1 -9.9 6 17.3 SSE 11 22 6 12 1012.1 - 0.0
30/03:30pm 32.7 27.4 -7.6 7 17.3 S 13 24 7 13 1012.3 - 0.0
30/03:00pm 32.4 27.7 -9.7 6 17.4 ENE 9 17 5 9 1012.6 1012.4 0.0
30/02:30pm 32.1 27.3 -9.9 6 17.2 ENE 9 17 5 9 1013.1 - 0.0
30/02:00pm 32.2 26.5 -7.9 7 17.0 E 15 26 8 14 1013.5 - 0.0
30/01:30pm 32.2 27.2 -7.9 7 17.0 E 11 20 6 11 1014.1 - 0.0
30/01:00pm 31.2 25.2 -6.9 8 16.3 SSE 17 28 9 15 1014.7 - 0.0
30/12:30pm 31.1 25.1 -7.0 8 16.3 SSE 17 26 9 14 1015.3 - 0.0
30/12:00pm 30.7 25.5 -5.8 9 15.9 SSE 13 26 7 14 1015.8 1015.7 0.0
30/11:30am 30.0 25.1 -3.6 11 15.1 SE 13 24 7 13 1016.3 - 0.0
30/11:00am 29.2 23.1 -4.3 11 14.8 SSE 19 26 10 14 1017.0 - 0.0
30/10:30am 28.0 23.0 -1.0 15 13.4 S 15 22 8 12 1017.3 - 0.0
30/10:00am 26.8 22.8 0.5 18 12.4 SSW 11 19 6 10 1017.5 - 0.0
30/09:30am 25.2 21.8 2.0 22 11.1 S 9 15 5 8 1017.6 - 0.0
30/09:00am 22.5 19.6 6.7 36 8.1 S 11 15 6 8 1017.7 1017.6 0.0
30/08:30am 20.5 17.6 8.2 45 6.4 SW 13 17 7 9 1017.6 - 0.0
30/08:00am 18.0 16.3 11.3 65 3.6 WSW 11 13 6 7 1017.4 - 0.0
30/07:30am 14.8 14.6 13.7 93 0.6 WSW 7 9 4 5 1017.2 - 0.0
30/07:21am 13.9 13.7 13.7 99 0.1 W 7 9 4 5 1017.1 - 0.0
30/07:11am 13.3 13.0 13.3 100 0.0 W 7 9 4 5 1017.0 - 0.0
30/07:00am 12.8 12.0 12.8 100 0.0 W 9 9 5 5 1017.0 - 0.0
30/06:41am 12.5 12.0 12.5 100 0.0 WSW 7 9 4 5 1016.9 - 0.0
30/06:30am 12.2 11.2 12.2 100 0.0 WSW 9 11 5 6 1016.7 - 0.0
30/06:22am 12.2 10.8 12.2 100 0.0 WSW 11 11 6 6 1016.6 - 0.0
30/06:06am 12.0 11.2 11.8 99 0.1 WSW 7 9 4 5 1016.6 - 0.0
30/06:00am 12.1 11.4 11.9 99 0.1 WSW 7 9 4 5 1016.5 1016.4 0.0
30/05:37am 12.8 12.1 12.0 95 0.4 SSW 7 11 4 6 1016.5 - 0.0
30/05:30am 13.0 12.0 12.4 96 0.3 SSW 9 13 5 7 1016.4 - 0.0
30/05:00am 12.3 11.6 12.0 98 0.2 W 7 9 4 5 1015.9 - 0.0
30/04:47am 12.4 11.9 11.9 97 0.3 W 6 7 3 4 1015.9 - 0.0
30/04:30am 12.6 11.9 12.0 96 0.3 WSW 7 9 4 5 1015.8 - 0.0
30/04:29am 12.7 12.1 12.2 97 0.3 WSW 7 9 4 5 1015.8 - 0.0
30/04:15am 12.7 11.7 11.1 90 0.8 WSW 7 9 4 5 1015.8 - 0.0
30/04:13am 12.7 11.8 11.4 92 0.7 SW 7 9 4 5 1015.8 - 0.0
30/04:00am 13.3 12.8 12.2 93 0.6 WSW 6 7 3 4 1015.8 - 0.0
30/03:30am 14.1 14.2 12.7 91 0.8 SSW 4 6 2 3 1015.8 - 0.0
30/03:00am 14.6 14.8 14.3 98 0.2 S 6 7 3 4 1015.9 1015.8 0.0
30/02:30am 14.8 14.9 14.0 95 0.5 S 6 7 3 4 1015.9 - 0.0
30/02:00am 14.6 14.4 13.6 94 0.6 W 7 7 4 4 1015.8 - 0.0
30/01:30am 15.1 15.1 14.1 94 0.6 W 7 9 4 5 1015.8 - 0.0
30/01:00am 16.5 17.4 15.0 91 0.9 SSW 4 7 2 4 1015.9 - 0.0
30/12:30am 17.6 19.7 16.3 92 0.8 CALM 0 4 0 2 1016.2 - 0.0
30/12:00am 18.0 19.8 15.4 85 1.5 CALM 0 0 0 0 1016.3 1016.2 0.0
 
Date/Time
CST
Temp
°C
App
Temp
°C
Dew
Point
Rel
Hum
%
Delta-T
°C
Wind Press
QNH
hPa
Press
MSL
hPa
Rain
since 9 am
mm
Dir
 
Spd
km/h
Gust
km/h
Spd
kts
Gust
kts
29/11:30pm 18.6 20.8 16.4 87 1.3 CALM 0 0 0 0 1016.4 - 0.0

Other Formats:

Comma delimited format used in spreadsheet applications
http://www.bom.gov.au/fwo/IDD60801/IDD60801.94239.axf

JavaScript Object Notation format (JSON) in row-major order
http://www.bom.gov.au/fwo/IDD60801/IDD60801.94239.json